New Castle, PA

1:33 PM EST on February 12, 2016 (GMT -0500)
New Castle Municipal

Weather History for KUCP - February, 2012

Change the Weather History Date:

Thursday, February 9, 2012

  Actual Average Record
Temperature  
Mean Temperature 28 °F -  
Max Temperature 36 °F 34 °F 58 °F (1990)
Min Temperature 19 °F 13 °F -17 °F (1934)
Degree Days  
Heating Degree Days 38    
Moisture  
Dew Point 18 °F    
Average Humidity 71    
Maximum Humidity 89    
Minimum Humidity 48    
Precipitation  
Precipitation 0.00 in - - ()
Sea Level Pressure  
Sea Level Pressure 30.30 in    
Wind  
Wind Speed 6 mph (SW)    
Max Wind Speed 14 mph    
Max Gust Speed -    
Visibility 10 miles    
Events      
Averages and records for this station are not official NWS values.
T = Trace of Precipitation, MM = Missing Value Source: NWS Daily Summary

Daily Weather History Graph

Daily Weather History Graph

Search for Another Location

Airport or City:

Trip Planner

Search our weather history database for the weather conditions in past years. The results will help you decide how hot, cold, wet, or windy it might be!

Date:

Astronomy

Feb. 09, 2012 Rise Set
Actual Time 7:24 AM EST 5:48 PM EST
Civil Twilight 6:55 AM EST 6:16 PM EST
Nautical Twilight 6:23 AM EST 6:49 PM EST
Astronomical Twilight 5:51 AM EST 7:21 PM EST
Moon 8:16 PM EST (2/9) 7:58 AM EST (2/9)
Length of Visible Light 11h 21m
Length of Day
10h 23m
Waning Gibbous, 96% of the Moon is Illuminated
Feb 9
Waning Gibbous
Feb 14
Last Quarter
Feb 21
New
Feb 29
First Quarter
Mar 8
Full

Hourly Weather History & Observations

Time (EST) Temp. Windchill Dew Point Humidity Pressure Visibility Wind Dir Wind Speed Gust Speed Precip Events Conditions
12:56 AM 20.1 °F 13.6 °F 16.2 °F 85% 30.32 in 10.0 mi SSW 4.6 mph - N/A   Clear
1:56 AM 19.0 °F 12.3 °F 16.2 °F 89% 30.32 in 10.0 mi SW 4.6 mph - N/A   Clear
2:56 AM 20.1 °F 12.3 °F 16.2 °F 85% 30.31 in 10.0 mi SW 5.8 mph - N/A   Clear
3:56 AM 20.1 °F 11.3 °F 16.2 °F 85% 30.31 in 10.0 mi SW 6.9 mph - N/A   Clear
4:56 AM 20.1 °F 12.3 °F 16.2 °F 85% 30.32 in 10.0 mi SW 5.8 mph - N/A   Partly Cloudy
5:56 AM 20.1 °F 13.6 °F 16.2 °F 85% 30.32 in 10.0 mi SW 4.6 mph - N/A   Clear
6:56 AM 19.0 °F 11.1 °F 16.2 °F 89% 30.33 in 10.0 mi SSW 5.8 mph - N/A   Clear
7:56 AM 19.0 °F 11.1 °F 16.2 °F 89% 30.35 in 8.0 mi SSW 5.8 mph - N/A   Clear
8:56 AM 23.0 °F 17.0 °F 18.1 °F 82% 30.36 in 9.0 mi Variable 4.6 mph - N/A   Clear
9:56 AM 27.1 °F 18.9 °F 20.1 °F 75% 30.36 in 10.0 mi WSW 8.1 mph - N/A   Clear
10:56 AM 30.0 °F 23.2 °F 20.1 °F 67% 30.35 in 10.0 mi SSW 6.9 mph - N/A   Clear
11:56 AM 32.0 °F 26.4 °F 21.0 °F 64% 30.33 in 10.0 mi SW 5.8 mph - N/A   Clear
12:56 PM 34.0 °F 24.6 °F 19.0 °F 54% 30.31 in 10.0 mi WSW 13.8 mph - N/A   Clear
1:56 PM 36.0 °F 27.1 °F 20.1 °F 53% 30.29 in 10.0 mi WSW 13.8 mph - N/A   Clear
2:56 PM 36.0 °F 28.5 °F 19.0 °F 50% 30.27 in 10.0 mi SW 10.4 mph - N/A   Clear
3:56 PM 34.9 °F 25.7 °F 17.1 °F 48% 30.28 in 10.0 mi WSW 13.8 mph - N/A   Clear
4:56 PM 34.0 °F 26.0 °F 19.0 °F 54% 30.27 in 10.0 mi SW 10.4 mph - N/A   Clear
5:56 PM 31.1 °F 23.1 °F 19.0 °F 61% 30.26 in 10.0 mi SW 9.2 mph - N/A   Clear
6:56 PM 29.1 °F 21.3 °F 19.0 °F 66% 30.27 in 10.0 mi SW 8.1 mph - N/A   Clear
7:56 PM 27.1 °F 21.8 °F 18.1 °F 69% 30.28 in 10.0 mi SSW 4.6 mph - N/A   Clear
8:56 PM 26.1 °F 19.4 °F 17.1 °F 69% 30.28 in 10.0 mi SW 5.8 mph - N/A   Clear
9:56 PM 25.2 °F 20.9 °F 17.1 °F 71% 30.28 in 10.0 mi South 3.5 mph - N/A   Clear
10:56 PM 24.1 °F - 17.1 °F 75% 30.26 in 10.0 mi Calm Calm - N/A   Partly Cloudy
11:56 PM 25.2 °F 20.9 °F 18.1 °F 75% 30.25 in 10.0 mi Variable 3.5 mph - N/A   Overcast